| time (UTC) | temp F | wind direction | speed MPH | gust MPH | rain 1hr in | rain 24hr in | rain mn in | humidity % | barometer mb |
| 20260505180001 | 43 | 107 | 0.0 | 0.0 | 0.00 | 0.00 | 0.00 | 91 | 1020.0 |
| 20260505175001 | 43 | 107 | 0.0 | 0.0 | 0.00 | 0.00 | 0.00 | 91 | 1019.9 |
| 20260505174000 | 43 | 107 | 0.0 | 0.0 | 0.00 | 0.00 | 0.00 | 90 | 1019.9 |
| 20260505173001 | 44 | 107 | 0.0 | 0.0 | 0.00 | 0.00 | 0.00 | 89 | 1019.9 |
| 20260505172000 | 44 | 107 | 0.0 | 0.0 | 0.00 | 0.00 | 0.00 | 88 | 1019.8 |
| 20260505171002 | 44 | 107 | 0.0 | 0.0 | 0.00 | 0.00 | 0.00 | 86 | 1019.8 |
| 20260505170001 | 45 | 107 | 0.0 | 0.0 | 0.00 | 0.00 | 0.00 | 85 | 1019.9 |
| 20260505165000 | 46 | 107 | 0.0 | 0.0 | 0.00 | 0.00 | 0.00 | 84 | 1019.9 |
| 20260505164000 | 47 | 107 | 0.0 | 0.0 | 0.00 | 0.00 | 0.00 | 82 | 1019.9 |
| 20260505163002 | 47 | 107 | 0.0 | 0.0 | 0.00 | 0.00 | 0.00 | 81 | 1019.9 |
| 20260505162001 | 48 | 107 | 0.0 | 0.0 | 0.00 | 0.00 | 0.00 | 79 | 1020.1 |
| 20260505161001 | 48 | 107 | 0.0 | 0.0 | 0.00 | 0.00 | 0.00 | 79 | 1020.1 |
| 20260505153001 | 49 | 101 | 0.0 | 0.0 | 0.00 | 0.00 | 0.00 | 77 | 1020.1 |
| 20260505152001 | 49 | 67 | 0.0 | 0.0 | 0.00 | 0.00 | 0.00 | 77 | 1020.3 |
| 20260505151001 | 49 | 131 | 0.0 | 0.0 | 0.00 | 0.00 | 0.00 | 77 | 1020.4 |
| 20260505125001 | 50 | 110 | 0.0 | 0.0 | 0.00 | 0.00 | 0.00 | 76 | 1019.8 |
| 20260505124001 | 51 | 110 | 0.0 | 0.0 | 0.00 | 0.00 | 0.00 | 75 | 1019.8 |
| 20260505123001 | 51 | 110 | 0.0 | 0.0 | 0.00 | 0.00 | 0.00 | 73 | 1019.7 |
| 20260505122001 | 51 | 146 | 0.0 | 0.0 | 0.00 | 0.00 | 0.00 | 72 | 1019.4 |
| 20260505121001 | 52 | 118 | 0.0 | 0.0 | 0.00 | 0.00 | 0.00 | 71 | 1019.4 |
| 20260505120001 | 52 | 139 | 0.0 | 0.0 | 0.00 | 0.00 | 0.00 | 70 | 1019.2 |
| 20260505115001 | 53 | 109 | 0.0 | 0.0 | 0.00 | 0.00 | 0.00 | 70 | 1019.0 |
| 20260505114001 | 53 | 62 | 0.0 | 0.0 | 0.00 | 0.00 | 0.00 | 70 | 1019.0 |
| 20260505113002 | 53 | 249 | 0.0 | 0.0 | 0.00 | 0.00 | 0.00 | 70 | 1018.8 |
| 20260505112001 | 54 | 219 | 0.0 | 0.0 | 0.00 | 0.00 | 0.00 | 69 | 1018.6 |
| 20260505111002 | 54 | 221 | 0.0 | 0.0 | 0.00 | 0.00 | 0.00 | 69 | 1018.6 |
| 20260505102002 | 56 | 209 | 0.0 | 0.0 | 0.00 | 0.00 | 0.00 | 68 | 1017.5 |
| 20260505101002 | 57 | 223 | 0.0 | 0.0 | 0.00 | 0.00 | 0.00 | 67 | 1017.4 |
| 20260505100000 | 58 | 157 | 0.0 | 0.0 | 0.00 | 0.00 | 0.00 | 66 | 1017.2 |
| 20260505095000 | 58 | 204 | 0.0 | 0.0 | 0.00 | 0.00 | 0.00 | 65 | 1017.0 |
| 20260505094002 | 59 | 268 | 0.0 | 0.0 | 0.00 | 0.00 | 0.00 | 63 | 1016.9 |
| 20260505093000 | 60 | 205 | 0.0 | 0.0 | 0.00 | 0.00 | 0.00 | 63 | 1016.7 |
| 20260505092001 | 60 | 144 | 0.0 | 0.0 | 0.00 | 0.00 | 0.00 | 61 | 1016.6 |
| 20260505091000 | 61 | 208 | 0.0 | 0.0 | 0.00 | 0.00 | 0.00 | 60 | 1016.6 |
| 20260505090001 | 62 | 207 | 0.0 | 0.0 | 0.00 | 0.00 | 0.00 | 59 | 1016.4 |
| 20260505085001 | 63 | 212 | 0.0 | 0.0 | 0.00 | 0.00 | 0.00 | 57 | 1016.3 |
| 20260505084000 | 64 | 231 | 0.0 | 0.0 | 0.00 | 0.00 | 0.00 | 55 | 1016.3 |
| 20260505083000 | 66 | 214 | 0.0 | 0.0 | 0.00 | 0.00 | 0.00 | 53 | 1016.2 |
| 20260505082002 | 67 | 103 | 0.0 | 0.0 | 0.00 | 0.00 | 0.00 | 52 | 1016.0 |
| 20260505081002 | 67 | 202 | 0.0 | 0.0 | 0.00 | 0.00 | 0.00 | 51 | 1016.0 |
| 20260505080002 | 67 | 88 | 0.0 | 0.0 | 0.00 | 0.00 | 0.00 | 48 | 1015.9 |
| 20260505075000 | 68 | 137 | 0.0 | 0.0 | 0.00 | 0.00 | 0.00 | 45 | 1015.7 |
| 20260505074000 | 69 | 206 | 0.0 | 0.0 | 0.00 | 0.00 | 0.00 | 43 | 1015.7 |
| 20260505073001 | 70 | 34 | 0.0 | 0.0 | 0.00 | 0.00 | 0.00 | 40 | 1015.6 |
| 20260505072000 | 70 | 133 | 0.0 | 0.0 | 0.00 | 0.00 | 0.00 | 37 | 1015.4 |
| 20260505071000 | 70 | 122 | 0.0 | 0.0 | 0.00 | 0.00 | 0.00 | 34 | 1015.4 |
| 20260505070001 | 70 | 72 | 0.0 | 0.0 | 0.00 | 0.00 | 0.00 | 35 | 1015.3 |
| 20260505065001 | 70 | 65 | 0.0 | 0.0 | 0.00 | 0.00 | 0.00 | 34 | 1015.4 |
| 20260505064000 | 70 | 132 | 0.0 | 0.0 | 0.00 | 0.00 | 0.00 | 33 | 1015.4 |
| 20260505063001 | 70 | 123 | 0.0 | 0.0 | 0.00 | 0.00 | 0.00 | 32 | 1015.4 |
| 20260505062001 | 70 | 146 | 0.0 | 0.0 | 0.00 | 0.00 | 0.00 | 29 | 1015.4 |
| 20260505061000 | 70 | 124 | 0.0 | 0.0 | 0.00 | 0.00 | 0.00 | 28 | 1015.4 |
| 20260505060001 | 70 | 146 | 0.0 | 0.0 | 0.00 | 0.00 | 0.00 | 30 | 1015.3 |
| 20260505055000 | 70 | 150 | 0.0 | 0.0 | 0.00 | 0.00 | 0.00 | 30 | 1015.3 |
| 20260505054000 | 70 | 91 | 0.0 | 0.0 | 0.00 | 0.00 | 0.00 | 30 | 1015.3 |
| 20260505053000 | 70 | 156 | 0.0 | 0.0 | 0.00 | 0.00 | 0.00 | 28 | 1015.5 |
| 20260505052001 | 70 | 165 | 0.0 | 0.0 | 0.00 | 0.00 | 0.00 | 29 | 1015.6 |
| 20260505051000 | 69 | 176 | 0.0 | 0.0 | 0.00 | 0.00 | 0.00 | 31 | 1015.6 |
| 20260505041001 | 67 | 189 | 0.0 | 0.0 | 0.00 | 0.00 | 0.00 | 32 | 1016.0 |
| 20260505040001 | 66 | 102 | 0.0 | 0.0 | 0.00 | 0.00 | 0.00 | 30 | 1016.1 |
| 20260505035001 | 66 | 132 | 0.0 | 0.0 | 0.00 | 0.00 | 0.00 | 27 | 1016.2 |
| 20260505034001 | 65 | 104 | 0.0 | 0.0 | 0.00 | 0.00 | 0.00 | 29 | 1016.2 |
| 20260505033000 | 65 | 145 | 0.0 | 0.0 | 0.00 | 0.00 | 0.00 | 26 | 1016.4 |
| 20260505032000 | 65 | 236 | 0.0 | 0.0 | 0.00 | 0.00 | 0.00 | 26 | 1016.3 |
| 20260505031000 | 64 | 95 | 0.0 | 0.0 | 0.00 | 0.00 | 0.00 | 30 | 1016.3 |
| 20260505030002 | 63 | 178 | 0.0 | 0.0 | 0.00 | 0.00 | 0.00 | 28 | 1016.4 |
| 20260505025001 | 63 | 215 | 0.0 | 0.0 | 0.00 | 0.00 | 0.00 | 29 | 1016.4 |
| 20260505024002 | 63 | 171 | 0.0 | 0.0 | 0.00 | 0.00 | 0.00 | 30 | 1016.4 |
| 20260505023001 | 62 | 102 | 0.0 | 0.0 | 0.00 | 0.00 | 0.00 | 32 | 1016.5 |
| 20260505022001 | 61 | 137 | 0.0 | 0.0 | 0.00 | 0.00 | 0.00 | 34 | 1016.7 |
| 20260505021001 | 61 | 244 | 0.0 | 0.0 | 0.00 | 0.00 | 0.00 | 26 | 1016.7 |
| 20260505020002 | 61 | 155 | 0.0 | 0.0 | 0.00 | 0.00 | 0.00 | 28 | 1016.8 |
| 20260505015000 | 60 | 165 | 0.0 | 0.0 | 0.00 | 0.00 | 0.00 | 27 | 1016.9 |
| 20260505014001 | 59 | 117 | 0.0 | 0.0 | 0.00 | 0.00 | 0.00 | 31 | 1016.9 |
| 20260505013002 | 58 | 287 | 0.0 | 0.0 | 0.00 | 0.00 | 0.00 | 29 | 1017.1 |
| 20260505012000 | 58 | 41 | 0.0 | 0.0 | 0.00 | 0.00 | 0.00 | 27 | 1017.2 |
| 20260505011000 | 58 | 173 | 0.0 | 0.0 | 0.00 | 0.00 | 0.00 | 33 | 1017.2 |
| 20260505010000 | 58 | 188 | 0.0 | 0.0 | 0.00 | 0.00 | 0.00 | 34 | 1017.2 |
| 20260505005000 | 57 | 254 | 0.0 | 0.0 | 0.00 | 0.00 | 0.00 | 33 | 1017.3 |
| 20260505004001 | 56 | 253 | 0.0 | 0.0 | 0.00 | 0.00 | 0.00 | 34 | 1017.3 |
| 20260505003000 | 55 | 139 | 0.0 | 0.0 | 0.00 | 0.00 | 0.00 | 37 | 1017.2 |
| 20260505002001 | 54 | 150 | 0.0 | 0.0 | 0.00 | 0.00 | 0.00 | 37 | 1017.3 |
| 20260505001001 | 53 | 211 | 0.0 | 0.0 | 0.00 | 0.00 | 0.00 | 41 | 1017.3 |
| 20260505000000 | 53 | 111 | 0.0 | 0.0 | 0.00 | 0.00 | 0.00 | 40 | 1017.1 |
| 20260504235000 | 52 | 155 | 0.0 | 0.0 | 0.00 | 0.00 | 0.00 | 43 | 1017.1 |
| 20260504234000 | 51 | 147 | 0.0 | 0.0 | 0.00 | 0.00 | 0.00 | 43 | 1017.1 |
| 20260504233000 | 50 | 280 | 0.0 | 0.0 | 0.00 | 0.00 | 0.00 | 45 | 1017.1 |
| 20260504232001 | 50 | 295 | 0.0 | 0.0 | 0.00 | 0.00 | 0.00 | 46 | 1017.0 |
| 20260504231000 | 49 | 295 | 0.0 | 0.0 | 0.00 | 0.00 | 0.00 | 45 | 1017.0 |
| 20260504230001 | 48 | 302 | 0.0 | 0.0 | 0.00 | 0.00 | 0.00 | 42 | 1017.0 |
| 20260504225001 | 47 | 303 | 0.0 | 0.0 | 0.00 | 0.00 | 0.00 | 58 | 1016.8 |
| 20260504224001 | 45 | 148 | 0.0 | 0.0 | 0.00 | 0.00 | 0.00 | 67 | 1016.8 |
| 20260504223000 | 44 | 137 | 0.0 | 0.0 | 0.00 | 0.00 | 0.00 | 71 | 1016.7 |
| 20260504222002 | 43 | 212 | 0.0 | 0.0 | 0.00 | 0.00 | 0.00 | 76 | 1016.5 |
| 20260504221000 | 42 | 124 | 0.0 | 0.0 | 0.00 | 0.00 | 0.00 | 79 | 1016.5 |
| 20260504220000 | 42 | 203 | 0.0 | 0.0 | 0.00 | 0.00 | 0.00 | 79 | 1016.5 |
| 20260504215000 | 41 | 280 | 0.0 | 0.0 | 0.00 | 0.00 | 0.00 | 81 | 1016.4 |
| 20260504214001 | 41 | 148 | 0.0 | 0.0 | 0.00 | 0.00 | 0.00 | 82 | 1016.4 |
| 20260504213000 | 40 | 9 | 0.0 | 0.0 | 0.00 | 0.00 | 0.00 | 83 | 1016.2 |
| 20260504212001 | 40 | 161 | 0.0 | 0.0 | 0.00 | 0.00 | 0.00 | 83 | 1016.1 |
| 20260504211001 | 39 | 152 | 0.0 | 0.0 | 0.00 | 0.02 | 0.00 | 84 | 1016.1 |
| 20260504210001 | 39 | 152 | 0.0 | 0.0 | 0.00 | 0.03 | 0.00 | 85 | 1015.7 |
| 20260504205000 | 38 | 282 | 0.0 | 0.0 | 0.00 | 0.04 | 0.00 | 86 | 1015.5 |
| 20260504204001 | 38 | 289 | 0.0 | 0.0 | 0.00 | 0.04 | 0.00 | 84 | 1015.4 |
| 20260504203000 | 39 | 117 | 0.0 | 0.0 | 0.00 | 0.05 | 0.00 | 83 | 1015.1 |
| 20260504202000 | 39 | 264 | 0.0 | 0.0 | 0.00 | 0.06 | 0.00 | 82 | 1014.9 |
| 20260504201000 | 39 | 250 | 0.0 | 0.0 | 0.00 | 0.07 | 0.00 | 82 | 1014.9 |
| 20260504200000 | 39 | 289 | 0.0 | 0.0 | 0.00 | 0.09 | 0.00 | 81 | 1014.6 |
| 20260504195000 | 39 | 281 | 0.0 | 0.0 | 0.00 | 0.12 | 0.00 | 81 | 1014.4 |
| 20260504194000 | 40 | 249 | 0.0 | 0.0 | 0.00 | 0.15 | 0.00 | 82 | 1014.3 |
| 20260504193001 | 40 | 246 | 0.0 | 0.0 | 0.00 | 0.19 | 0.00 | 81 | 1014.2 |
| 20260504192000 | 40 | 283 | 0.0 | 0.0 | 0.00 | 0.21 | 0.00 | 80 | 1014.1 |
| 20260504191000 | 40 | 270 | 0.0 | 0.0 | 0.00 | 0.26 | 0.00 | 79 | 1014.1 |
| 20260504190000 | 40 | 291 | 0.0 | 0.0 | 0.00 | 0.30 | 0.00 | 77 | 1013.8 |
| 20260504185001 | 41 | 174 | 0.0 | 0.0 | 0.00 | 0.35 | 0.00 | 77 | 1013.6 |
| 20260504184000 | 41 | 121 | 0.0 | 0.0 | 0.00 | 0.37 | 0.00 | 76 | 1013.6 |
| 20260504183001 | 42 | 295 | 0.0 | 0.0 | 0.00 | 0.37 | 0.00 | 75 | 1013.3 |
| 20260504182001 | 42 | 151 | 0.0 | 0.0 | 0.00 | 0.39 | 0.00 | 73 | 1013.1 |
| 20260504181000 | 43 | 141 | 0.0 | 0.0 | 0.00 | 0.41 | 0.00 | 71 | 1013.1 |